[[{"header":{"parameterUnit":"m.s-1","parameterCategory":1,"la1":30.2991,"la2":30.254,"lo1":-89.0895,"lo2":-89.0444,"dy":0.0017,"dx":0.0017,"nx":28,"ny":28,"refTime":"2023-04-29T21:00:00:Z","depth":0,"parameterNumber":2,"parameterNumberName":"U-component_of_WINDS"},"data":[0,0,0,0,0,0,0,0,0,0,0,0,0,0,0,0,0,0,0,0,0,0,0,0,0,0,0,0,0,0,0,0,0,0,0,0,0,0,0,0,0,0,0,0,0,0,0,0,0,0,0,0,0,0,0,0,0,0,0.3297,0.3294,0,0.2974,0.2971,0.2967,0.2759,0.2758,0.2756,0.2755,0.2412,0.2405,0.2397,0,0,0,0,0,0,0,0,0,0,0,0,0,0.3723,0.3717,0.3298,0.3294,0.329,0.2975,0.2971,0.2966,0.2759,0.2758,0.2756,0.2755,0.2415,0.2406,0.2396,0,0,0,0,0,0,0,0,0,0,0,0,0,0.3483,0.3715,0.3298,0.3149,0.3132,0.2976,0.297,0.2965,0.2759,0.2758,0.2756,0.2754,0.2418,0.2407,0.2395,0.2358,0,0,0.2358,0.2353,0,0,0,0,0,0,0,0,0.3497,0.3468,0.3175,0.3159,0.314,0.2905,0.2995,0.2761,0.276,0.2901,0.2755,0.2753,0.2577,0.2552,0.2495,0.2342,0.2328,0.2357,0.235,0.2345,0.2341,0,0,0,0,0,0,0,0.3514,0.348,0.3169,0.3171,0.3149,0.3094,0.3058,0.2949,0.2753,0.2888,0.2872,0.2838,0.2567,0.2507,0.2486,0.2323,0.2358,0.2347,0.234,0.2335,0.212,0.2122,0,0,0,0,0,0,0.3556,0.3496,0.318,0.316,0.3318,0.3088,0.3047,0.2982,0.2754,0.2717,0.284,0.2829,0.2529,0.25,0.2473,0.2413,0.2345,0.2334,0.2327,0.2119,0.2121,0.2122,0,0,0,0,0,0,0.3566,0.353,0.3193,0.3323,0.3276,0.3082,0.3011,0.2977,0.2917,0.2717,0.268,0.2815,0.2526,0.2489,0.2389,0.2399,0.2328,0.2318,0.2117,0.2119,0.2121,0.2297,0,0,0,0,0,0,0.3579,0.3535,0.3522,0.3325,0.327,0.3119,0.3012,0.2972,0.2898,0.2882,0.2684,0.265,0.2522,0.2408,0.2377,0.2381,0.2308,0.2115,0.2118,0.2121,0.2289,0.2305,0.2318,0,0,0,0,0,0.3595,0.3582,0.3522,0.3485,0.3251,0.312,0.3088,0.2944,0.29,0.2883,0.2755,0.2656,0.2403,0.2399,0.2362,0.2364,0.2114,0.2117,0.212,0.2283,0.2302,0.2318,0,0,0,0,0,0,0.3781,0.3553,0.3485,0.3408,0.3286,0.3085,0.306,0.2969,0.2853,0.2842,0.2665,0.2622,0.2538,0.244,0.244,0.2315,0.2246,0.2243,0.2382,0.2399,0.2413,0.2438,0.2298,0,0,0,0,0,0.3814,0.3731,0.3534,0.3486,0.3428,0.3256,0.3193,0.3093,0.2957,0.2903,0.2766,0.2635,0.2524,0.2456,0.2344,0.2274,0.2226,0.2256,0.2271,0.2283,0.2282,0.2235,0.2245,0.2133,0.2133,0.2133,0,0,0.388,0.3745,0.3702,0.352,0.3413,0.3327,0.3213,0.3126,0.3059,0.2888,0.2785,0.2681,0.2521,0.2436,0.2391,0.2351,0.2302,0.2288,0.2299,0.229,0.2239,0.225,0.226,0.2135,0.2135,0.2134,0,0,0.3955,0.3847,0.3794,0.369,0.3531,0.3416,0.3404,0.3216,0.3142,0.3037,0.2906,0.2821,0.2637,0.2528,0.2449,0.2484,0.2387,0.2451,0.2527,0.2483,0.2492,0.2499,0.2509,0.2516,0.2451,0.2451,0.2451,0,0.4056,0.3925,0.3777,0.3699,0.3621,0.3466,0.3409,0.3313,0.3125,0.3072,0.3032,0.2796,0.2678,0.2564,0.2573,0.2514,0.2491,0.2473,0.2503,0.2509,0.2513,0.2521,0.2526,0.246,0.2459,0.2458,0.2457,0,0.4056,0.3967,0.3943,0.3769,0.3688,0.3621,0.3459,0.3394,0.3301,0.319,0.3083,0.2936,0.2791,0.2756,0.2663,0.2627,0.2608,0.2538,0.2465,0.2535,0.254,0.2542,0.2473,0.2469,0.2467,0.2465,0,0,0.4239,0.3986,0.3979,0.3898,0.3712,0.3637,0.3562,0.3424,0.3371,0.3245,0.3175,0.3022,0.2956,0.2867,0.2759,0.2721,0.2756,0.2654,0.2648,0.2678,0.2705,0.276,0.2766,0.2691,0.2691,0.2691,0.2719,0,0.4286,0.4148,0.4012,0.392,0.3835,0.3686,0.3619,0.3495,0.3388,0.3296,0.3175,0.307,0.2992,0.2936,0.2892,0.2762,0.2759,0.2758,0.262,0.2617,0.2666,0.2769,0.2825,0.2859,0.272,0.272,0.272,0,0.4322,0.4209,0.4111,0.3932,0.389,0.3834,0.3696,0.3612,0.3466,0.3391,0.3292,0.3179,0.3087,0.3026,0.2894,0.2897,0.2831,0.2759,0.2756,0.2737,0.2673,0.2752,0.2866,0.2871,0.2721,0.2721,0.2721,0,0.4465,0.4287,0.4204,0.414,0.3929,0.3893,0.3803,0.3656,0.3582,0.3459,0.3409,0.3276,0.3203,0.3101,0.2953,0.2923,0.2837,0.2763,0.2768,0.2772,0.2756,0.2759,0.2862,0.2717,0.2717,0.2716,0.2716,0,0.4531,0.4477,0.4266,0.4216,0.4148,0.3991,0.3927,0.3822,0.3693,0.3616,0.3477,0.3407,0.3217,0.3122,0.3006,0.2914,0.2881,0.2815,0.2784,0.2827,0.2836,0.2782,0.2775,0.2717,0.2717,0.2717,0.2717,0,0.4679,0.4536,0.4437,0.4248,0.4198,0.4157,0.3992,0.3935,0.3821,0.3725,0.3693,0.3512,0.3394,0.3237,0.3068,0.2989,0.2911,0.2863,0.2962,0.2944,0.2958,0.2959,0.3028,0.3028,0.2886,0.2888,0.2889,0,0.4731,0.4686,0.4493,0.4434,0.435,0.4256,0.4181,0.4023,0.3949,0.378,0.3743,0.3615,0.3504,0.332,0.3171,0.304,0.2988,0.3021,0.2967,0.3011,0.2986,0.2991,0.2985,0.3035,0.3037,0.3039,0.304,0,0.4837,0.4769,0.4669,0.4544,0.446,0.4352,0.4237,0.4196,0.4012,0.3936,0.3816,0.3731,0.356,0.3433,0.3283,0.3183,0.308,0.3059,0.3053,0.3096,0.3155,0.3122,0.2998,0.3058,0.3056,0.3055,0.3054,0.3053,0.4936,0.4889,0.4747,0.464,0.4538,0.4435,0.4373,0.4253,0.4152,0.4004,0.3915,0.3799,0.365,0.3439,0.3344,0.3247,0.3207,0.3198,0.3196,0.3196,0.321,0.3172,0.3219,0.3218,0.3217,0.3216,0.3216,0,0.5034,0.4936,0.4839,0.4687,0.4602,0.4518,0.4386,0.4319,0.422,0.4094,0.3989,0.385,0.3726,0.3568,0.3431,0.3384,0.3333,0.3353,0.3354,0.3333,0.3254,0.3273,0.3397,0.3397,0.3397,0.3397,0.3397,0.3397,0.5075,0.4992,0.4907,0.4771,0.467,0.456,0.4492,0.4394,0.4293,0.4147,0.4045,0.3945,0.3803,0.3656,0.3537,0.3493,0.3448,0.3484,0.3425,0.3355,0.3338,0.3323,0.334,0.3476,0.3476,0.3511,0.3512,0.3512]},{"header":{"parameterUnit":"m.s-1","parameterCategory":1,"la1":30.2991,"la2":30.254,"lo1":-89.0895,"lo2":-89.0444,"dy":0.0017,"dx":0.0017,"nx":28,"ny":28,"refTime":"2023-04-29T21:00:00:Z","depth":0,"parameterNumber":3,"parameterNumberName":"V-component_of_WINDS"},"data":[0,0,0,0,0,0,0,0,0,0,0,0,0,0,0,0,0,0,0,0,0,0,0,0,0,0,0,0,0,0,0,0,0,0,0,0,0,0,0,0,0,0,0,0,0,0,0,0,0,0,0,0,0,0,0,0,0,0,2.6934,2.6933,0,2.6861,2.686,2.6859,2.6753,2.6751,2.6749,2.6748,2.6668,2.6668,2.6668,0,0,0,0,0,0,0,0,0,0,0,0,0,2.698,2.698,2.6934,2.6933,2.6932,2.6861,2.686,2.6859,2.6753,2.6751,2.6749,2.6747,2.6669,2.6668,2.6668,0,0,0,0,0,0,0,0,0,0,0,0,0,2.6939,2.698,2.6934,2.6871,2.6865,2.6861,2.686,2.6859,2.6754,2.6751,2.6748,2.6746,2.6669,2.6668,2.6668,2.6719,0,0,2.6666,2.6665,0,0,0,0,0,0,0,0,2.6941,2.6937,2.6881,2.6875,2.6868,2.6813,2.6847,2.6812,2.6755,2.6796,2.6748,2.6744,2.6719,2.6714,2.6706,2.6715,2.6712,2.6666,2.6665,2.6665,2.6665,0,0,0,0,0,0,0,2.6944,2.694,2.6905,2.688,2.6873,2.6846,2.6837,2.684,2.6773,2.6792,2.6784,2.6777,2.6714,2.6707,2.6703,2.671,2.6666,2.6665,2.6665,2.6665,2.6763,2.6766,0,0,0,0,0,0,2.6957,2.6943,2.6907,2.6903,2.6899,2.6847,2.6837,2.6834,2.6773,2.6761,2.678,2.6773,2.6709,2.6704,2.67,2.6759,2.6665,2.6664,2.6664,2.676,2.6763,2.6767,0,0,0,0,0,0,2.6958,2.6955,2.691,2.6921,2.6913,2.6849,2.6846,2.6834,2.6826,2.6764,2.6751,2.6784,2.6707,2.6701,2.6716,2.6755,2.6664,2.6664,2.6756,2.6761,2.6765,2.6877,0,0,0,0,0,0,2.696,2.6956,2.6975,2.6922,2.6913,2.6928,2.6848,2.6834,2.6826,2.6816,2.6765,2.6753,2.6704,2.6718,2.6716,2.6752,2.6663,2.6753,2.6758,2.6764,2.6869,2.6884,2.6897,0,0,0,0,0,2.6962,2.7007,2.6976,2.6973,2.6935,2.6931,2.6925,2.6869,2.6829,2.6848,2.6809,2.6755,2.6751,2.672,2.6717,2.6754,2.675,2.6757,2.6763,2.6863,2.6881,2.6897,0,0,0,0,0,0,2.7063,2.6999,2.6964,2.6993,2.6969,2.6913,2.6934,2.689,2.6874,2.6865,2.6795,2.6784,2.681,2.6783,2.675,2.6803,2.6743,2.6749,2.6819,2.6836,2.685,2.6856,2.6663,0,0,0,0,0,2.7089,2.7092,2.7035,2.7066,2.7056,2.6998,2.6993,2.6953,2.6924,2.6912,2.6874,2.6847,2.684,2.6836,2.6826,2.6865,2.6854,2.6889,2.6903,2.6915,2.6922,2.6944,2.696,2.6789,2.6789,2.6788,0,0,2.7142,2.7107,2.7112,2.7086,2.7062,2.7066,2.6989,2.6996,2.6999,2.6912,2.6926,2.6898,2.6863,2.6892,2.6902,2.687,2.6967,2.6923,2.6933,2.6933,2.6953,2.6969,2.6984,2.6793,2.6792,2.6792,0,0,2.7241,2.7214,2.7239,2.7218,2.7185,2.7147,2.7153,2.7105,2.7084,2.7097,2.7034,2.7036,2.7024,2.7003,2.6991,2.7089,2.704,2.7087,2.7161,2.7184,2.7197,2.7209,2.7246,2.7261,2.7094,2.7094,2.7094,0,2.731,2.7315,2.7257,2.727,2.7261,2.7187,2.7212,2.7194,2.7158,2.7154,2.7119,2.7107,2.7077,2.7102,2.7127,2.7119,2.7125,2.7093,2.72,2.7211,2.7221,2.7256,2.727,2.71,2.7099,2.7099,2.7098,0,2.7404,2.7409,2.7433,2.7405,2.7398,2.7417,2.7362,2.7363,2.7324,2.7291,2.7307,2.727,2.7253,2.7256,2.7216,2.7277,2.7259,2.7213,2.7151,2.7245,2.7277,2.729,2.7109,2.7107,2.7105,2.7103,0,0,2.7561,2.7504,2.7514,2.7502,2.7462,2.7464,2.7481,2.7468,2.7471,2.745,2.7463,2.7458,2.7417,2.7404,2.7362,2.7382,2.7466,2.7334,2.7332,2.7362,2.7534,2.757,2.7587,2.7434,2.7436,2.7438,2.7538,0,2.7654,2.7681,2.7631,2.767,2.7676,2.7608,2.7623,2.76,2.757,2.757,2.7535,2.7535,2.7479,2.7472,2.7488,2.7452,2.75,2.7444,2.7446,2.7447,2.7459,2.7603,2.7639,2.7736,2.755,2.7552,2.7553,0,2.7764,2.7753,2.7794,2.7756,2.7756,2.7771,2.7757,2.7758,2.7732,2.7708,2.7697,2.7649,2.7664,2.7605,2.7626,2.7589,2.7587,2.7571,2.7573,2.7572,2.7507,2.7607,2.7764,2.778,2.7572,2.757,2.7569,0,2.7878,2.7873,2.7898,2.7889,2.7845,2.7858,2.7839,2.7811,2.7808,2.7795,2.7793,2.7781,2.7775,2.7768,2.7719,2.768,2.7747,2.7683,2.7729,2.7731,2.7746,2.7746,2.7908,2.7743,2.7743,2.7743,2.7742,0,2.7987,2.8015,2.7949,2.7965,2.7995,2.7939,2.797,2.7945,2.7922,2.7931,2.787,2.7881,2.7815,2.7819,2.778,2.7806,2.7802,2.7785,2.7775,2.7791,2.7794,2.779,2.7783,2.7746,2.7746,2.7745,2.7744,0,2.8119,2.8076,2.8099,2.8057,2.8048,2.8072,2.8036,2.8049,2.8017,2.8031,2.8031,2.798,2.7981,2.7933,2.7923,2.7897,2.794,2.7917,2.795,2.7943,2.7994,2.7991,2.8159,2.818,2.8001,2.8003,2.8004,0,2.8191,2.8212,2.8175,2.8179,2.8165,2.8171,2.8168,2.8115,2.8115,2.809,2.8107,2.8105,2.81,2.8106,2.8068,2.8062,2.8039,2.8098,2.8037,2.8055,2.8043,2.8043,2.8046,2.8111,2.8114,2.8115,2.8117,0,2.8326,2.8305,2.8305,2.83,2.83,2.8292,2.828,2.8286,2.8228,2.8231,2.8234,2.8231,2.8225,2.8224,2.8212,2.8192,2.8146,2.8137,2.8148,2.8166,2.8185,2.8179,2.7987,2.8133,2.8131,2.813,2.8129,2.8129,2.8431,2.8449,2.8427,2.843,2.8417,2.8409,2.8421,2.8393,2.8395,2.8387,2.8355,2.8365,2.8342,2.8322,2.8308,2.8314,2.8285,2.83,2.8304,2.8309,2.832,2.8184,2.8311,2.8311,2.831,2.831,2.831,0,2.8565,2.8549,2.8553,2.8541,2.8545,2.8504,2.849,2.8496,2.8506,2.849,2.8488,2.8494,2.8494,2.8459,2.8455,2.8468,2.8447,2.8468,2.8467,2.8465,2.8345,2.8337,2.8486,2.8486,2.8486,2.8486,2.8486,2.8486,2.8635,2.8664,2.8641,2.8664,2.8647,2.8658,2.8655,2.8648,2.8635,2.8645,2.8647,2.8625,2.8602,2.8597,2.8596,2.8586,2.8588,2.8618,2.8601,2.8489,2.8472,2.8456,2.8449,2.8618,2.8619,2.872,2.8721,2.8722]}]]